Fort Rucker / Ozark, AL

10:08 AM CDT on March 30, 2017 (GMT -0500)
Fort Rucker / Ozark

Weather History for KHEY - March, 2014

Change the Weather History Date:

Monday, March 3, 2014

  Actual Average (KOZR) Record (KOZR)
Temperature  
Mean Temperature 52 °F -  
Max Temperature 66 °F 64 °F 82 °F (1997)
Min Temperature 37 °F 43 °F 28 °F (2009)
Degree Days  
Heating Degree Days 14    
Growing Degree Days 2 (Base 50)    
Moisture  
Dew Point 49 °F    
Average Humidity 85    
Maximum Humidity 100    
Minimum Humidity 69    
Precipitation  
Precipitation 0.06 in - - ()
Sea Level Pressure  
Sea Level Pressure 29.92 in    
Wind  
Wind Speed 8 mph (WNW)    
Max Wind Speed 17 mph    
Max Gust Speed 26 mph    
Visibility 8 miles    
Events Rain    
Averages and records for this station are not official NWS values.
T = Trace of Precipitation, MM = Missing Value Source: NWS Daily Summary

Daily Weather History Graph

Daily Weather History Graph

Search for Another Location

Airport or City:

Trip Planner

Search our weather history database for the weather conditions in past years. The results will help you decide how hot, cold, wet, or windy it might be!

Date:

Astronomy

Mar. 03, 2014 Rise Set
Actual Time 6:07 AM CST 5:42 PM CST
Civil Twilight 5:42 AM CST 6:06 PM CST
Nautical Twilight 5:14 AM CST 6:34 PM CST
Astronomical Twilight 4:46 AM CST 7:02 PM CST
Moon 7:26 AM CST (3/3) 8:30 PM CST (3/3)
Length of Visible Light 12h 23m
Length of Day
11h 35m
Waxing Crescent, 8% of the Moon is Illuminated
Mar 3
Waxing Crescent
Mar 8
First Quarter
Mar 16
Full
Mar 23
Last Quarter
Mar 30
New

Hourly Weather History & Observations

Time (CST) Temp. Windchill Dew Point Humidity Pressure Visibility Wind Dir Wind Speed Gust Speed Precip Events Conditions
12:53 AM 57.0 °F - 55.0 °F 93% 29.66 in 8.0 mi WSW 5.8 mph - N/A   Overcast
1:51 AM 55.4 °F - 55.4 °F 100% 29.99 in 7.0 mi SW 4.6 mph - N/A   Scattered Clouds
1:53 AM 55.9 °F - 55.0 °F 97% 29.65 in 7.0 mi SW 3.5 mph - N/A   Scattered Clouds
2:19 AM 55.9 °F - 55.0 °F 97% 29.98 in 6.0 mi SW 3.5 mph - N/A   Mostly Cloudy
2:53 AM 55.9 °F - 55.0 °F 97% 29.62 in 6.0 mi Variable 3.5 mph - N/A   Overcast
3:35 AM 57.0 °F - 55.9 °F 96% 29.94 in 2.5 mi South 5.8 mph - N/A   Overcast
3:53 AM 57.0 °F - 55.9 °F 96% 29.61 in 3.0 mi SSW 5.8 mph - N/A   Overcast
4:53 AM 57.9 °F - 57.0 °F 97% 29.60 in 5.0 mi SSW 8.1 mph - N/A   Overcast
5:53 AM 57.9 °F - 57.0 °F 97% 29.60 in 7.0 mi SSW 4.6 mph - N/A   Overcast
6:53 AM 59.0 °F - 57.0 °F 93% 29.62 in 8.0 mi SSW 8.1 mph 16.1 mph N/A   Overcast
7:10 AM 59.0 °F - 57.0 °F 93% 29.94 in 8.0 mi SSW 5.8 mph - N/A   Mostly Cloudy
7:30 AM 61.0 °F - 57.9 °F 90% 29.94 in 10.0 mi SSW 11.5 mph - N/A   Mostly Cloudy
7:53 AM 62.1 °F - 57.9 °F 86% 29.62 in 10.0 mi SSW 9.2 mph - N/A   Mostly Cloudy
8:53 AM 66.0 °F - 60.1 °F 81% 29.61 in 10.0 mi SW 8.1 mph 16.1 mph 0.00 in   Overcast
9:17 AM 66.0 °F - 60.1 °F 81% 29.94 in 10.0 mi SW 6.9 mph 18.4 mph N/A   Overcast
9:53 AM 66.9 °F - 61.0 °F 81% 29.62 in 9.0 mi WSW 5.8 mph - 0.00 in Rain Light Rain
10:49 AM 64.4 °F - 64.4 °F 100% 29.95 in 2.5 mi West 8.1 mph - 0.02 in Rain Light Rain
10:53 AM 64.9 °F - 64.0 °F 97% 29.91 in 1.5 mi WNW 9.2 mph - 0.04 in Rain Rain
11:02 AM 64.9 °F - 63.0 °F 93% 29.95 in 2.0 mi WNW 10.4 mph 19.6 mph 0.01 in Rain Light Rain
11:07 AM 64.9 °F - 63.0 °F 93% 29.96 in 4.0 mi WNW 12.7 mph 20.7 mph 0.01 in Rain Light Rain
11:34 AM 55.0 °F - 53.1 °F 93% 29.98 in 5.0 mi NNW 17.3 mph 24.2 mph 0.02 in   Overcast
11:49 AM 53.6 °F - 51.8 °F 94% 29.99 in 9.0 mi NW 13.8 mph 26.5 mph 0.02 in   Overcast
11:53 AM 54.0 °F - 51.1 °F 90% 29.96 in 10.0 mi NW 15.0 mph 26.5 mph 0.02 in   Overcast
12:07 PM 53.1 °F - 50.0 °F 89% 29.99 in 10.0 mi WNW 13.8 mph 26.5 mph N/A   Overcast
12:17 PM 53.1 °F - 50.0 °F 89% 30.00 in 10.0 mi NW 11.5 mph 20.7 mph N/A   Overcast
12:53 PM 54.0 °F - 46.9 °F 77% 29.96 in 10.0 mi NW 12.7 mph 20.7 mph N/A   Overcast
1:53 PM 55.0 °F - 45.0 °F 69% 29.96 in 10.0 mi NW 13.8 mph 21.9 mph N/A   Overcast
2:13 PM 54.0 °F - 44.1 °F 69% 30.00 in 10.0 mi NW 15.0 mph 21.9 mph N/A   Overcast
2:36 PM 53.1 °F - 43.0 °F 69% 30.01 in 10.0 mi NNW 13.8 mph 20.7 mph N/A   Scattered Clouds
2:53 PM 52.0 °F - 43.0 °F 71% 29.98 in 10.0 mi NW 16.1 mph 20.7 mph N/A   Scattered Clouds
3:04 PM 51.1 °F - 43.0 °F 74% 30.01 in 10.0 mi WNW 11.5 mph - N/A   Mostly Cloudy
3:53 PM 50.0 °F - 41.0 °F 71% 30.00 in 10.0 mi NNW 15.0 mph - N/A   Overcast
4:53 PM 48.0 °F - 39.0 °F 71% 30.02 in 10.0 mi North 12.7 mph - N/A   Overcast
5:53 PM 45.0 °F 39.7 °F 37.9 °F 76% 30.04 in 10.0 mi NW 10.4 mph - N/A   Overcast
6:31 PM 44.1 °F 37.7 °F 37.0 °F 76% 30.08 in 10.0 mi NNW 12.7 mph 24.2 mph N/A   Overcast
6:53 PM 43.0 °F 36.4 °F 37.0 °F 80% 30.05 in 10.0 mi NNW 12.7 mph - N/A   Overcast
7:53 PM 41.0 °F 35.8 °F 35.1 °F 79% 30.07 in 10.0 mi NNW 8.1 mph - N/A   Overcast
8:42 PM 39.9 °F 33.4 °F 34.0 °F 79% 30.12 in 10.0 mi NW 10.4 mph - N/A   Overcast
8:53 PM 39.9 °F 31.8 °F 33.1 °F 77% 30.09 in 10.0 mi North 15.0 mph 20.7 mph N/A   Overcast
9:38 PM 39.0 °F 32.3 °F 32.0 °F 76% 30.14 in 10.0 mi NNW 10.4 mph 21.9 mph N/A   Overcast
9:53 PM 39.0 °F 31.0 °F 32.0 °F 76% 30.10 in 10.0 mi NNW 13.8 mph - N/A   Overcast
10:38 PM 37.9 °F 32.7 °F 32.0 °F 79% 30.14 in 10.0 mi NNW 6.9 mph - N/A   Overcast
10:53 PM 37.9 °F 32.7 °F 32.0 °F 79% 30.11 in 10.0 mi NNW 6.9 mph - N/A   Overcast
11:53 PM 37.9 °F 32.1 °F 32.0 °F 79% 30.10 in 10.0 mi North 8.1 mph - N/A   Overcast